Terminal Aerodrome Forecast
Issued by NWS San Angelo, TX

Home | Current Version | Previous Version | Text Only | Print | Product List | Glossary On
Versions: 1 2 3 4 5 6 7 8 9 10 11 12 13 14
000
FTUS44 KSJT 302300
TAFABI
TAF
KABI 302320Z 3100/3124 02011KT P6SM SCT080
     FM310300 02008G18KT P6SM SKC
     FM312100 02012KT P6SM SKC=

USA.gov is the U.S. government's official web portal to all federal, state and local government web resources and services.